Location: Heiligenberg
(48.5381°N, 7.3897°E)
Time: 19:58:15
(UTC+00:00)

Helios 1A - Pass Details

Date: 26 May 2022
Orbit: 582 x 600 km, 98.2° (Epoch: 29 June)

Event Time Altitude Azimuth Distance (km) Brightness Sun altitude
Exits shadow 01:17:36 - 144° (SE) 2,160 5.6 -16.1°
Reaches altitude 10° 01:18:10 10° 142° (SE) 1,929 5.3 -16.1°
Maximum altitude 01:22:11 46° 69° (ENE) 812 4.0 -15.8°
Drops below altitude 10° 01:26:14 10° 357° (N) 1,952 6.5 -15.5°
Sets 01:28:28 0° 351° (N) 2,861 7.4 -15.3°
